Tracking 17938 objects as of 24-February-2017
HD Live streaming from Space Station
objects crossing your sky now

CP4

Track CP4 now!
10-day predictions
CP4 is classified as:


NORAD ID: 31132
Int'l Code: 2007-012Q
Perigee: 646.4 km
Apogee: 762.1 km
Inclination: 98.0 °
Period: 98.7 minutes
Semi major axis: 7075 km
RCS: 0.0337 m2 (small)
Launch date: April 17, 2007
Source: United States (US)
Launch site: TYURATAM MISSILE AND SPACE COMPLEX (TTMTR)
Uplink (MHz):
Downlink (MHz): 437.325
Beacon (MHz): 437.323
Mode: 1200bps SSB
Call sign: N6CP
Status: Inactive

Your satellite tracking list
Your tracking list is empty





NASA's NSSDC Master Catalog

Two Line Element Set (TLE):
1 31132U 07012Q   17054.44242242  .00000178  00000-0  46172-4 0  9991
2 31132  98.0158  14.1076 0081813 134.3061 226.4887 14.58780943523861
Source of the keplerian elements: Caltech